Regional Weather Roundup
Issued by NWS

Home | Current Version | Previous Version | Graphics & Text | Print | Product List | Glossary On
Versions: 1 2 3 4 5 6 7 8 9 10 11 12 13 14 15 16 17 18 19 20 21 22 23 24 25 26 27 28 29 30 31 32 33 34 35 36 37 38 39 40 41 42 43 44 45 46 47 48 49 50
000
ASUS43 KLMK 052202
RWRKY
KENTUCKY REGIONAL WEATHER ROUNDUP
NATIONAL WEATHER SERVICE LOUISVILLE KY
500 PM EST MON DEC 05 2016

NOTE "FAIR" INDICATES FEW OR NO CLOUDS BELOW 12,000 FEET
WITH NO SIGNIFICANT WEATHER AND/OR OBSTRUCTIONS TO VISIBILITY.

KYZ001>023-026-027-061>063-070>075-052300-
WESTERN AND SOUTH CENTRAL KENTUCKY

CITY           SKY/WX    TMP DP  RH WIND       PRES   REMARKS
PADUCAH        CLOUDY    42  35  76 E10       29.92F
HENDERSON      PTCLDY    41  34  75 SE8       29.95F
OWENSBORO      CLOUDY    43  36  76 SE7       29.97F
HOPKINSVILLE   CLOUDY    42  40  90 E10       29.92F
BOWLING GREEN  CLOUDY    45  39  79 NE8       29.97S
GLASGOW        NOT AVBL
$$

KYZ024-025-028>034-038-045-046-053-052300-
NORTH CENTRAL KENTUCKY

CITY           SKY/WX    TMP DP  RH WIND       PRES   REMARKS
LOUISVILLE/SDF CLOUDY    44  33  65 E5        30.01S
LOUISVILLE/LOU CLOUDY    44  34  67 E5        30.01F
FORT KNOX      CLOUDY    42  35  75 E7        29.98S
$$

KYZ035>037-039>044-047>052-055>060-089>105-052300-
NORTHEAST KENTUCKY

CITY           SKY/WX    TMP DP  RH WIND       PRES   REMARKS
LEXINGTON      CLOUDY    44  35  70 E6        30.02R
COVINGTON      CLOUDY    42  33  70 E5        30.02S
FRANKFORT      MOCLDY    44  34  67 E7        30.01R
$$

KYZ054-064>069-076>088-106>120-052300-
SOUTHEAST KENTUCKY

CITY           SKY/WX    TMP DP  RH WIND       PRES   REMARKS
JACKSON        PTCLDY    46  37  71 NE3       29.99F
LONDON         MOCLDY    47  39  74 NE7       29.97F
SOMERSET       NOT AVBL
MIDDLESBORO    MOCLDY    50  44  79 CALM      29.97S
MONTICELLO     CLOUDY    47  42  83 NW5       29.98S
$$





USA.gov is the U.S. government's official web portal to all federal, state and local government web resources and services.